• In Hungary
  • List of Countries
  • For 7 days
  • Water Temperature
  • Satellite Maps
  • Weather Map
  • News
  • Weather Widgets
  • user-avatar
    Login

    Hourly Weather Novomuraptalovo

    Today, 24 September, Monday

    Time Temperature Precipitation Wind Pressure Humidity
    00:00 +16°C° 0 mm 1 mps 750 mmHg 89%
    01:00 +15°C° 0 mm 2 mps 750 mmHg 90%
    02:00 +15°C° 0 mm 2 mps 750 mmHg 90%
    03:00 +15°C° 0 mm 2 mps 750 mmHg 91%
    04:00 +15°C° 0 mm 2 mps 750 mmHg 92%
    05:00 +15°C° 0 mm 2 mps 750 mmHg 92%
    06:00 +15°C° 0 mm 2 mps 750 mmHg 92%
    07:00 +15°C° 0 mm 2 mps 750 mmHg 92%
    08:00 +17°C° 0 mm 3 mps 750 mmHg 84%
    09:00 +18°C° 0 mm 4 mps 750 mmHg 76%
    10:00 +20°C° 0 mm 4 mps 749 mmHg 68%
    11:00 +21°C° 0 mm 5 mps 749 mmHg 60%
    12:00 +23°C° 0 mm 6 mps 749 mmHg 52%
    13:00 +24°C° 0 mm 6 mps 749 mmHg 43%
    14:00 +24°C° 0 mm 6 mps 748 mmHg 42%
    15:00 +24°C° 0 mm 6 mps 748 mmHg 41%
    16:00 +24°C° 0 mm 6 mps 748 mmHg 40%
    17:00 +22°C° 0 mm 5 mps 748 mmHg 43%
    18:00 +21°C° 0 mm 4 mps 748 mmHg 46%
    19:00 +19°C° 0 mm 3 mps 748 mmHg 50%
    20:00 +18°C° 0 mm 3 mps 748 mmHg 51%
    21:00 +18°C° 0 mm 3 mps 748 mmHg 52%
    22:00 +17°C° 0 mm 3 mps 748 mmHg 52%
    23:00 +17°C° 0 mm 3 mps 748 mmHg 54%

    Tomorrow, 25 September, Tuesday

    Time Temperature Precipitation Wind Pressure Humidity
    00:00 +16°C° 0 mm 2 mps 748 mmHg 55%
    01:00 +15°C° 0 mm 2 mps 748 mmHg 56%
    02:00 +15°C° 0 mm 2 mps 748 mmHg 56%
    03:00 +15°C° 0 mm 2 mps 748 mmHg 55%
    04:00 +14°C° 0 mm 3 mps 748 mmHg 54%
    05:00 +14°C° 0 mm 3 mps 748 mmHg 55%
    06:00 +14°C° 0 mm 3 mps 748 mmHg 55%
    07:00 +14°C° 0 mm 3 mps 748 mmHg 55%
    08:00 +17°C° 0 mm 4 mps 748 mmHg 53%
    09:00 +19°C° 0 mm 6 mps 748 mmHg 51%
    10:00 +20°C° 0 mm 7 mps 748 mmHg 49%
    11:00 +21°C° 0 mm 7 mps 748 mmHg 48%
    12:00 +22°C° 0 mm 7 mps 748 mmHg 46%
    13:00 +22°C° 0 mm 7 mps 748 mmHg 44%
    14:00 +23°C° 0 mm 7 mps 748 mmHg 42%
    15:00 +23°C° 0 mm 7 mps 748 mmHg 40%
    16:00 +23°C° 0 mm 6 mps 747 mmHg 38%
    17:00 +21°C° 0 mm 5 mps 748 mmHg 40%
    18:00 +19°C° 0 mm 4 mps 748 mmHg 42%
    19:00 +17°C° 0 mm 3 mps 748 mmHg 44%
    20:00 +17°C° 0 mm 3 mps 748 mmHg 44%
    21:00 +16°C° 0 mm 2 mps 748 mmHg 45%
    22:00 +16°C° 0 mm 2 mps 748 mmHg 45%
    23:00 +14°C° 0 mm 3 mps 748 mmHg 47%

    Day after tomorrow, 26 September, Wednesday

    Time Temperature Precipitation Wind Pressure Humidity
    00:00 +14°C° 0 mm 3 mps 748 mmHg 49%
    01:00 +14°C° 0 mm 3 mps 748 mmHg 52%
    02:00 +14°C° 0 mm 3 mps 748 mmHg 54%
    03:00 +14°C° 0 mm 3 mps 748 mmHg 56%
    04:00 +14°C° 0 mm 3 mps 748 mmHg 59%
    05:00 +14°C° 0 mm 3 mps 748 mmHg 59%
    06:00 +16°C° 0 mm 3 mps 748 mmHg 60%
    07:00 +16°C° 0 mm 3 mps 748 mmHg 61%
    08:00 +17°C° 0 mm 4 mps 749 mmHg 60%
    09:00 +17°C° 0 mm 4 mps 749 mmHg 60%
    10:00 +18°C° 0 mm 4 mps 749 mmHg 59%
    11:00 +18°C° 0 mm 4 mps 750 mmHg 59%
    12:00 +19°C° 0 mm 5 mps 750 mmHg 59%
    13:00 +19°C° 0 mm 5 mps 750 mmHg 58%
    14:00 +19°C° 0 mm 5 mps 751 mmHg 60%
    15:00 +17°C° 0 mm 5 mps 751 mmHg 63%
    16:00 +18°C° 0 mm 4 mps 751 mmHg 65%
    17:00 +15°C° 0.2 mm 4 mps 751 mmHg 69%
    18:00 +13°C° 0.2 mm 4 mps 752 mmHg 74%
    19:00 +12°C° 0.2 mm 4 mps 752 mmHg 78%
    20:00 +12°C° 0.1 mm 3 mps 752 mmHg 78%
    21:00 +11°C° 0.1 mm 3 mps 752 mmHg 79%
    22:00 +12°C° 0.1 mm 2 mps 752 mmHg 79%
    23:00 +12°C° 0.1 mm 2 mps 752 mmHg 80%

    27 September, Thursday

    Time Temperature Precipitation Wind Pressure Humidity
    00:00 +11°C° 0.1 mm 3 mps 752 mmHg 81%
    01:00 +10°C° 0.1 mm 3 mps 752 mmHg 82%
    02:00 +10°C° 0.4 mm 3 mps 752 mmHg 83%
    03:00 +10°C° 0.4 mm 2 mps 752 mmHg 85%
    04:00 +10°C° 0.4 mm 2 mps 752 mmHg 86%
    05:00 +10°C° 0.6 mm 2 mps 752 mmHg 87%
    06:00 +9°C° 0.6 mm 2 mps 752 mmHg 88%
    07:00 +9°C° 0.6 mm 2 mps 752 mmHg 89%
    08:00 +9°C° 0.7 mm 2 mps 752 mmHg 88%
    09:00 +9°C° 0.7 mm 2 mps 752 mmHg 86%
    10:00 +10°C° 0.7 mm 2 mps 752 mmHg 84%
    11:00 +10°C° 0.3 mm 2 mps 751 mmHg 79%
    12:00 +12°C° 0.3 mm 2 mps 751 mmHg 73%
    13:00 +13°C° 0.3 mm 1 mps 751 mmHg 67%
    14:00 +13°C° 0.1 mm 2 mps 751 mmHg 65%
    15:00 +13°C° 0.1 mm 2 mps 751 mmHg 63%
    16:00 +13°C° 0.1 mm 2 mps 751 mmHg 61%
    17:00 +12°C° 0 mm 2 mps 751 mmHg 66%
    18:00 +10°C° 0 mm 2 mps 750 mmHg 70%
    19:00 +9°C° 0 mm 2 mps 750 mmHg 75%
    20:00 +9°C° 0 mm 2 mps 750 mmHg 77%
    21:00 +8°C° 0 mm 2 mps 750 mmHg 79%
    22:00 +8°C° 0 mm 3 mps 750 mmHg 81%
    23:00 +8°C° 0 mm 3 mps 750 mmHg 79%

    28 September, Friday

    Time Temperature Precipitation Wind Pressure Humidity
    00:00 +8°C° 0 mm 3 mps 750 mmHg 78%
    01:00 +8°C° 0 mm 3 mps 749 mmHg 77%
    02:00 +8°C° 0 mm 3 mps 749 mmHg 75%
    03:00 +8°C° 0 mm 3 mps 749 mmHg 73%
    04:00 +7°C° 0 mm 4 mps 749 mmHg 70%
    05:00 +7°C° 0 mm 4 mps 749 mmHg 69%
    06:00 +7°C° 0 mm 4 mps 749 mmHg 68%
    07:00 +7°C° 0 mm 4 mps 749 mmHg 67%
    08:00 +8°C° 0 mm 5 mps 749 mmHg 63%
    09:00 +9°C° 0 mm 5 mps 749 mmHg 60%
    10:00 +10°C° 0 mm 6 mps 749 mmHg 56%
    11:00 +10°C° 0 mm 6 mps 749 mmHg 56%
    12:00 +12°C° 0 mm 5 mps 750 mmHg 55%
    13:00 +13°C° 0 mm 5 mps 750 mmHg 55%
    14:00 +13°C° 0 mm 5 mps 750 mmHg 54%
    15:00 +13°C° 0 mm 4 mps 750 mmHg 54%
    16:00 +13°C° 0 mm 4 mps 750 mmHg 54%
    17:00 +12°C° 0 mm 4 mps 750 mmHg 58%
    18:00 +11°C° 0 mm 3 mps 750 mmHg 62%
    19:00 +10°C° 0 mm 3 mps 750 mmHg 65%
    20:00 +10°C° 0 mm 3 mps 750 mmHg 66%
    21:00 +10°C° 0 mm 4 mps 750 mmHg 67%
    22:00 +10°C° 0 mm 4 mps 750 mmHg 68%
    23:00 +10°C° 0 mm 4 mps 749 mmHg 69%

    29 September, Saturday

    Time Temperature Precipitation Wind Pressure Humidity
    00:00 +9°C° 0 mm 5 mps 749 mmHg 69%
    01:00 +9°C° 0 mm 5 mps 749 mmHg 70%
    02:00 +9°C° 0 mm 5 mps 749 mmHg 69%
    03:00 +9°C° 0 mm 5 mps 749 mmHg 68%
    04:00 +9°C° 0 mm 6 mps 749 mmHg 67%
    05:00 +9°C° 0 mm 6 mps 749 mmHg 64%
    06:00 +9°C° 0 mm 6 mps 749 mmHg 61%
    07:00 +9°C° 0 mm 6 mps 749 mmHg 58%
    08:00 +11°C° 0 mm 6 mps 749 mmHg 56%
    09:00 +13°C° 0 mm 6 mps 750 mmHg 53%
    10:00 +15°C° 0 mm 6 mps 750 mmHg 51%
    11:00 +16°C° 0 mm 6 mps 750 mmHg 52%
    12:00 +16°C° 0 mm 5 mps 750 mmHg 54%
    13:00 +17°C° 0 mm 5 mps 750 mmHg 55%
    14:00 +17°C° 0 mm 4 mps 750 mmHg 59%
    15:00 +17°C° 0 mm 4 mps 750 mmHg 64%
    16:00 +16°C° 0 mm 3 mps 750 mmHg 68%
    17:00 +15°C° 0.1 mm 2 mps 750 mmHg 72%
    18:00 +14°C° 0.1 mm 2 mps 751 mmHg 77%
    19:00 +13°C° 0.1 mm 1 mps 751 mmHg 82%
    20:00 +13°C° 0 mm 1 mps 751 mmHg 83%
    21:00 +12°C° 0 mm 1 mps 751 mmHg 84%
    22:00 +12°C° 0 mm 1 mps 751 mmHg 86%
    23:00 +12°C° 0 mm 1 mps 751 mmHg 85%
    Show more

    3.3.7123123